Regional Weather Roundup
Issued by NWS

Home | Current Version | Previous Version | Text Only | Print | Product List | Glossary Off
Versions: 1 2 3 4 5 6 7 8 9 10 11 12 13 14 15 16 17 18 19 20 21 22 23 24 25 26 27 28 29 30 31 32 33 34 35 36 37 38 39 40 41 42 43 44 45 46 47 48 49 50

000
ASUS43 KMPX 230901
RWRMN
WEATHER ROUNDUP FOR MINNESOTA
NATIONAL WEATHER SERVICE TWIN CITIES/CHANHASSEN MN
300 AM CST THU FEB 23 2017


NOTE: "FAIR" INDICATES FEW OR NO CLOUDS BELOW 12,000 FEET WITH NO
SIGNIFICANT WEATHER AND/OR OBSTRUCTIONS TO VISIBILITY. N/A MEANS
CURRENT SKY AND/OR WEATHER CONDITIONS ARE NOT AVAILABLE.

MNZ060>063-068>070-231000-
   Twin Cities Metro

CITY           SKY/WX    TMP DP  RH WIND       PRES   REMARKS
TWIN CITIES    CLOUDY    36  29  75 N14G28    29.85S
ST PAUL        CLOUDY    36  32  85 N17       29.86S
CRYSTAL        CLOUDY    35  27  72 N16G22    29.85S WCI  25
BLAINE         CLOUDY    36  30  80 N14       29.86F
LAKEVILLE      CLOUDY    36  30  80 N15       29.84R
EDEN PRAIRIE   CLOUDY    35  29  78 NW14      29.83F WCI  26
SOUTH ST PAUL  CLOUDY    37  32  82 N10G18    29.84S
LAKE ELMO      CLOUDY    36  32  87 NW8G17    29.85S
$$
MNZ001>005-007-008-013>017-022>024-027-028-231000-
   Northwest Minnesota

CITY           SKY/WX    TMP DP  RH WIND       PRES   REMARKS
BEMIDJI        MOCLDY    24  19  83 N7        29.91F WCI  16
HALLOCK        CLOUDY    28  25  86 N9        29.99F WCI  20
ROSEAU         MOCLDY    27  19  74 N15       29.97S WCI  15
WARROAD        CLOUDY    25  18  74 NW9       29.97S WCI  15
THIEF RVR FALL CLEAR     24  20  84 N10       29.96  WCI  14
CROOKSTON      MOCLDY    28  23  80 NE10      29.98F WCI  19
FOSSTON        CLEAR     25  21  86 N10       29.94F WCI  15
DETROIT LAKES  CLEAR     28  27  93 N7        29.94R WCI  21
MOORHEAD       CLEAR     28  25  86 N9        29.99R WCI  20
PARK RAPIDS    CLEAR     25  20  81 N7        29.89S WCI  17
MAHNOMEN       FAIR      27  23  84 N10       29.93R WCI  17
$$
MNZ006-009>011-018-025>026-231000-
   North Central Minnesota

CITY           SKY/WX    TMP DP  RH WIND       PRES   REMARKS
BAUDETTE       CLOUDY    25  18  74 NW16      29.93R WCI  12
FLAG ISLAND    MOCLDY    21  16  79 NW21      29.96S WCI   6
INTL FALLS     CLOUDY    25  15  66 NW12      29.91R WCI  14
WASKISH        CLOUDY    25  19  80 NW6       29.94S WCI  18
BIG FORK       CLOUDY    25  19  80 NW7       29.90S WCI  17
LONGVILLE      CLEAR     23  21  93 N6        29.90F WCI  16
GRAND RAPIDS   PTCLDY    22  21  96 NW12      29.90S WCI  10
CRANE LAKE     CLOUDY    28  21  74 NW5       29.88S WCI  23
ORR            CLOUDY    27  19  74 NW6       29.85S WCI  20
COOK           CLOUDY    25  23  93 NW5       29.87R WCI  19
WALKER         CLOUDY    25  21  85 N6        29.90F WCI  18
$$
MNZ012-019>021-037-231000-
   Northeast Minnesota

CITY           SKY/WX    TMP DP  RH WIND       PRES   REMARKS
DULUTH         PTCLDY    28  26  92 N10       29.82R WCI  19
ELY            CLOUDY    27  23  86 CALM      29.83R
HIBBING        CLEAR     24  23  96 NW13      29.86R WCI  12
EVELETH        CLEAR     26  22  87 NW7       29.86S WCI  18
DULUTH HARBOR  PTCLDY    34  28  80 CALM      29.87S
TWO HARBORS    CLOUDY    34  27  75 N3        29.81R
SILVER BAY     CLOUDY    30  27  86 N3        29.81R
GRAND MARAIS     N/A     33  24  69 CALM      29.82R
G MARAIS ARPRT CLOUDY    27  18  69 NW5       29.76R WCI  21
$$
MNZ029>031-032-039>041-046>048-054>057-064-231000-
   West Central Minnesota

CITY           SKY/WX    TMP DP  RH WIND       PRES   REMARKS
FERGUS FALLS   CLEAR     27  27 100 CALM      29.99S
WHEATON        CLEAR     28  27  93 NW7       29.96F WCI  21
MORRIS         CLEAR     30  27  86 N12       29.92F WCI  21
ALEXANDRIA     CLEAR     29  25  85 N5        29.92R WCI  24
ELBOW LAKE     FAIR      28  28  98 W8        29.95S WCI  20
WADENA         CLEAR     25  23  93 W3        29.92R
GLENWOOD       CLEAR     28  25  86 N9        29.91F WCI  20
APPLETON       CLEAR     30  28  93 N10       29.92F WCI  21
BENSON         CLEAR     27  23  86 N8        29.94F WCI  18
ORTONVILLE     CLEAR     28  27  93 CALM      29.93F
MADISON        CLEAR     34  30  86 N9        29.93F WCI  26
WILLMAR        FAIR      32  28  86 N13       29.92F WCI  22
$$
MNZ033>034-036-042>043-049>051-058-059-231000-
   Central Minnesota

CITY           SKY/WX    TMP DP  RH WIND       PRES   REMARKS
ST CLOUD       CLEAR     29  26  89 NW7       29.90R WCI  22
SAUK CENTRE    FAIR      28  24  86 N8        29.91S WCI  20
PAYNESVILLE    CLEAR     30  26  86 N7        29.91F WCI  23
AITKIN         CLEAR     28  23  80 NW5       29.87F WCI  23
PINE RIVER     CLEAR     27  21  80 N10       29.93S WCI  17
BRAINERD       CLEAR     27  23  85 N9        29.89  WCI  18
STAPLES        CLEAR     25  23  93 NW5       29.92R WCI  19
LONG PRAIRIE   FAIR      28  25  86 NW7       29.92R WCI  21
LITTLE FALLS   CLEAR     28  23  80 NW5       29.92R WCI  23
LITCHFIELD     CLEAR     30  28  93 N9        29.89F WCI  22
BUFFALO        MOCLDY    32  27  81 N9        29.89F WCI  25
MAPLE LAKE     CLEAR     32  29  88 N12       29.89F WCI  23
HUTCHINSON     PTCLDY    32  29  89 N8G20     29.87F WCI  25
$$
MNZ037-044-045-052-053-231000-
   East Central Minnesota

CITY           SKY/WX    TMP DP  RH WIND       PRES   REMARKS
PRINCETON      CLEAR     30  27  86 NW9       29.89F WCI  22
MORA           CLEAR     30  27  86 N3        29.90R
CAMBRIDGE      CLOUDY    36  25  64 N6        29.86S
RUSH CITY      PTCLDY    32  27  80 N9        29.88R WCI  24
MOOSE LAKE     CLEAR     30  27  86 N5        29.85R WCI  25
HINCKLEY       FAIR      32  28  86 N7        29.87R WCI  26
CLOQUET        CLEAR     28  25  86 NW7       29.84S WCI  21
MCGREGOR       CLEAR     27  25  93 NW8       29.87F WCI  18
$$
MNZ071>073-080-081-089-090-097-098-231000-
   Southwest Minnesota

CITY           SKY/WX    TMP DP  RH WIND       PRES   REMARKS
MONTEVIDEO     CLEAR     30  28  93 N9        29.93F WCI  22
GRANITE FALLS  CLEAR     33  29  85 N12       29.92F WCI  24
CANBY          MOCLDY    32  29  88 N12       29.93F WCI  23
MARSHALL       CLOUDY    32  29  88 N15       29.89F WCI  22
REDWOOD FALLS  CLOUDY    33  26  75 N10G17    29.89R WCI  25
OLIVIA         CLEAR     32  28  86 N14       29.88F WCI  22
PIPESTONE      CLOUDY    30  27  86 NE13G18   29.85S WCI  20
WINDOM         CLOUDY    34  32  93 N18       29.85S WCI  23
WORTHINGTON    CLOUDY    31  30  96 N13       29.88R FOG     WCI  21
JACKSON          N/A     32  32 100 N9G18     29.85R WCI  24
TRACY          CLOUDY    32  31  96 N17       29.87F WCI  21
SLAYTON        CLOUDY    30  29  97 N16G26    29.86S WCI  19
$$
MNZ065>067-074>077-082>085-091>093-231000-
   South Central Minnesota

CITY           SKY/WX    TMP DP  RH WIND       PRES   REMARKS
MANKATO          N/A     35  31  85 N16       29.84S WCI  25
NEW ULM        CLOUDY    34  28  80 N14G23    29.85F WCI  24
ST JAMES       CLOUDY    34  32  93 N15       29.85F WCI  24
FAIRMONT       CLOUDY    35  32  88 N20       29.84S WCI  24
GLENCOE        CLOUDY    34  32  93 N13       29.86S WCI  25
FARIBAULT      CLOUDY    36  32  87 N12       29.83S
OWATONNA       CLOUDY    36  30  80 N13       29.82S
WASECA         CLOUDY    36  34  93 N13       29.84R
ALBERT LEA     CLOUDY    36  34  93 N16       29.80F
$$
MNZ078>079-086>088-094>096-231000-
   Southeast Minnesota

CITY           SKY/WX    TMP DP  RH WIND       PRES   REMARKS
ROCHESTER      CLOUDY    35  34  96 NW21      29.79R WCI  24
RED WING       CLOUDY    37  30  75 N9G18     29.81S
STANTON        CLOUDY    37  32  82 N9        29.83R
DODGE CENTER   CLOUDY    36  34  93 N17G24    29.80S
WINONA         CLOUDY    41  34  75 NW9       29.78S
AUSTIN         CLOUDY    36  34  93 N13G21    29.80S
PRESTON        CLOUDY    38  34  85 N12       29.77R
$$
ABBREVIATIONS USED IN REMARKS
   TC - TEMPERATURES IN CELSIUS
  WCI - WIND CHILL INDEX
   HX - HEAT INDEX
  VSB - VISIBILITY
$$




USA.gov is the U.S. government's official web portal to all federal, state and local government web resources and services.